{"data":{"norad_id":35946,"epoch":"2026-09-20T03:33:04.354848Z","epoch_age_seconds":48579,"freshness":"FRESH","line1":"1 35946U 09055A   26263.14796707  .00000048  00000+0  30250-4 0  9991","line2":"2 35946  98.4714 335.2906 0003313 308.6126  51.4764 14.37921106889293","mean_motion":14.37921106,"eccentricity":0.0003313,"inclination_deg":98.4714,"raan_deg":335.2906,"arg_perigee_deg":308.6126,"mean_anomaly_deg":51.4764,"bstar":3.025e-5,"rev_number":88929,"period_min":100.14457636037,"perigee_km":763.00874550163,"apogee_km":767.74203681201,"semimajor_km":7143.5123911568,"source":"CELESTRAK","updated_at":"2026-09-20T09:00:33.890315Z"}}